Weather History for EPWA - March, 2013

Change the Weather History Date:

Wednesday, March 6, 2013

  Actual Average Record
Temperature  
Mean Temperature 44 °F -  
Max Temperature 58 °F 45 °F 58 °F (2013)
Min Temperature 29 °F 31 °F 10 °F (2006)
Degree Days  
Heating Degree Days 22    
Moisture  
Dew Point 25 °F    
Average Humidity 51    
Maximum Humidity 81    
Minimum Humidity 16    
Precipitation  
Precipitation 0.00 in 0.04 in - ()
Sea Level Pressure  
Sea Level Pressure 29.83 in    
Wind  
Wind Speed 6 mph ()    
Max Wind Speed 14 mph    
Max Gust Speed -    
Visibility 13.9 miles    
Events      
Averages and records for this station are not official NWS values.
T = Trace of Precipitation, MM = Missing Value Source: Averaged Metar Reports

Daily Weather History Graph

Daily Weather History Graph

Search for Another Location

Airport or City:

Trip Planner

Search our weather history database for the weather conditions in past years. The results will help you decide how hot, cold, wet, or windy it might be!

Date:

Astronomy

Mar. 06, 2013 Rise Set
Actual Time 6:10 AM CET 5:24 PM CET
Civil Twilight 5:37 AM CET 5:58 PM CET
Nautical Twilight 4:58 AM CET 6:37 PM CET
Astronomical Twilight 4:18 AM CET 7:17 PM CET
Moon 2:36 AM CET (3/6) 11:14 AM CET (3/6)
Length of Visible Light 12h 21m
Length of Day
11h 13m
Waning Crescent, 33% of the Moon is Illuminated
Mar 6
Waning Crescent
Mar 11
New
Mar 19
First Quarter
Mar 27
Full
Apr 3
Last Quarter

Hourly Weather History & Observations

Time (CET) Temp. Windchill Dew Point Humidity Pressure Visibility Wind Dir Wind Speed Gust Speed Precip Events Conditions
12:00 AM 33.8 °F 29.6 °F 24.8 °F 70% 29.98 in - SSE 4.6 mph - N/A   Clear
12:30 AM 33.8 °F 28.6 °F 23.0 °F 65% 29.98 in - SSE 5.8 mph - N/A   Clear
1:00 AM 33 °F - 23 °F 55% 29.99 in 12 mi SSE 4.5 mph - -  
1:00 AM 33.8 °F 28.6 °F 23.0 °F 65% 29.95 in - SSE 5.8 mph - N/A   Clear
1:30 AM 33.8 °F 27.7 °F 23.0 °F 65% 29.95 in - SSE 6.9 mph - N/A   Clear
2:00 AM 32.0 °F 26.4 °F 23.0 °F 69% 29.95 in - SSE 5.8 mph - N/A   Clear
2:30 AM 32.0 °F 25.6 °F 23.0 °F 69% 29.92 in - SSE 6.9 mph - N/A   Clear
3:00 AM 32.0 °F - 23.0 °F 69% 29.92 in - Variable 2.3 mph - N/A   Clear
3:30 AM 32.0 °F - 23.0 °F 69% 29.92 in - Variable 2.3 mph - N/A   Clear
4:00 AM 31 °F - 22 °F 57% 29.94 in 12 mi SE 4.5 mph - -  
4:00 AM 30.2 °F 24.3 °F 23.0 °F 75% 29.92 in - SE 5.8 mph - N/A   Clear
4:30 AM 30.2 °F 24.3 °F 21.2 °F 69% 29.92 in - SSE 5.8 mph - N/A   Clear
5:00 AM 30.2 °F 23.4 °F 21.2 °F 69% 29.89 in - SE 6.9 mph - N/A   Clear
5:30 AM 30.2 °F 24.3 °F 21.2 °F 69% 29.89 in - SE 5.8 mph - N/A   Clear
6:00 AM 30.2 °F 24.3 °F 21.2 °F 69% 29.89 in - SSE 5.8 mph - N/A   Clear
6:30 AM 30.2 °F 24.3 °F 21.2 °F 69% 29.89 in - SSE 5.8 mph - N/A   Clear
7:00 AM 32 °F - 21 °F 51% 29.92 in 12 mi SSE 4.5 mph - -   Clear
7:00 AM 32.0 °F 25.6 °F 21.2 °F 64% 29.89 in - SSE 6.9 mph - N/A   Clear
7:30 AM 33.8 °F 27.7 °F 21.2 °F 60% 29.89 in - SSE 6.9 mph - N/A   Clear
8:00 AM 37.4 °F 30.3 °F 21.2 °F 52% 29.89 in - South 10.4 mph - N/A   Clear
8:30 AM 39.2 °F 33.0 °F 23.0 °F 52% 29.86 in - South 9.2 mph - N/A   Clear
9:00 AM 41.0 °F 35.2 °F 23.0 °F 49% 29.86 in - South 9.2 mph - N/A   Clear
9:30 AM 42.8 °F 37.5 °F 23.0 °F 46% 29.86 in - South 9.2 mph - N/A   Clear
10:00 AM 46 °F - 23 °F 27% 29.88 in 19 mi South 6.7 mph - -   Clear
10:00 AM 46.4 °F 41.9 °F 23.0 °F 40% 29.86 in - South 9.2 mph - N/A   Clear
10:30 AM 50.0 °F - 23.0 °F 35% 29.86 in - South 8.1 mph - N/A   Clear
11:00 AM 51.8 °F - 23.0 °F 33% 29.83 in - South 10.4 mph - N/A   Clear
11:30 AM 53.6 °F - 24.8 °F 33% 29.83 in - SSE 9.2 mph - N/A   Clear
12:00 PM 55.4 °F - 23.0 °F 29% 29.80 in - South 12.7 mph - N/A   Clear
12:30 PM 55.4 °F - 24.8 °F 31% 29.80 in - South 13.8 mph - N/A   Clear
1:00 PM 56 °F - 23 °F 16% 29.80 in 19 mi South 8.9 mph - -  
1:00 PM 55.4 °F - 24.8 °F 31% 29.80 in - South 11.5 mph - N/A   Clear
1:30 PM 57.2 °F - 23.0 °F 27% 29.77 in - South 10.4 mph - N/A   Clear
2:00 PM 57.2 °F - 23.0 °F 27% 29.77 in - South 10.4 mph - N/A   Clear
2:30 PM 57.2 °F - 24.8 °F 29% 29.77 in - SSE 8.1 mph - N/A   Clear
3:00 PM 57.2 °F - 24.8 °F 29% 29.74 in - South 6.9 mph - N/A   Clear
3:30 PM 57.2 °F - 24.8 °F 29% 29.74 in - South 11.5 mph - N/A   Clear
4:00 PM 57 °F - 26 °F 19% 29.75 in 19 mi SW 4.5 mph - -  
4:00 PM 57.2 °F - 26.6 °F 31% 29.74 in - SW 9.2 mph - N/A   Clear
4:30 PM 57.2 °F - 26.6 °F 31% 29.74 in - SW 5.8 mph - N/A   Clear
5:00 PM 53.6 °F - 26.6 °F 35% 29.74 in - Variable 3.5 mph - N/A   Clear
5:30 PM 51.8 °F - 28.4 °F 41% 29.74 in - Calm Calm - N/A   Clear
6:00 PM 48.2 °F - 28.4 °F 46% 29.74 in - Variable 2.3 mph - N/A   Clear
6:30 PM 48.2 °F - 28.4 °F 46% 29.74 in - ESE 4.6 mph - N/A   Clear
7:00 PM 47 °F - 28 °F 35% 29.75 in 9 mi SSE 2.2 mph - -   Clear
7:00 PM 48.2 °F - 28.4 °F 46% 29.74 in - SSE 5.8 mph - N/A   Clear
7:30 PM 46.4 °F 44.3 °F 28.4 °F 50% 29.74 in - SSE 4.6 mph - N/A   Clear
8:00 PM 44.6 °F 42.2 °F 28.4 °F 53% 29.74 in - SE 4.6 mph - N/A   Clear
8:30 PM 42.8 °F 40.1 °F 30.2 °F 61% 29.74 in - ESE 4.6 mph - N/A   Clear
9:00 PM 42.8 °F - 30.2 °F 61% 29.74 in - Variable 2.3 mph - N/A   Clear
9:30 PM 37.4 °F - 26.6 °F 65% 29.74 in - Variable 2.3 mph - N/A   Clear
10:00 PM 38 °F - 29 °F 59% 29.76 in 9 mi Calm Calm - -   Clear
10:00 PM 37.4 °F - 28.4 °F 70% 29.74 in - Variable 1.2 mph - N/A   Clear
10:30 PM 37.4 °F - 28.4 °F 70% 29.74 in - Calm Calm - N/A   Clear
11:00 PM 35.6 °F - 28.4 °F 75% 29.74 in - Variable 1.2 mph - N/A   Clear
11:30 PM 35.6 °F 31.7 °F 30.2 °F 81% 29.74 in - SE 4.6 mph - N/A   Clear